TimePDT,TemperatureF,Dew PointF,Humidity,Sea Level PressureIn,VisibilityMPH,Wind Direction,Wind SpeedMPH,Gust SpeedMPH,PrecipitationIn,Events,Conditions,WindDirDegrees,DateUTC
12:56 AM,55.9,45.0,67,29.99,10.0,Calm,Calm,-,N/A,,Clear,0,2013-05-30 07:56:00
1:56 AM,55.9,45.0,67,29.98,10.0,South,3.5,-,N/A,,Clear,190,2013-05-30 08:56:00
2:56 AM,54.0,45.0,72,29.97,10.0,SSE,3.5,-,N/A,,Clear,160,2013-05-30 09:56:00
3:56 AM,54.0,46.0,75,29.98,10.0,Calm,Calm,-,N/A,,Clear,0,2013-05-30 10:56:00
4:56 AM,53.1,45.0,74,29.99,10.0,SSE,3.5,-,N/A,,Clear,160,2013-05-30 11:56:00
5:56 AM,52.0,46.9,83,30.00,10.0,SSE,4.6,-,N/A,,Clear,150,2013-05-30 12:56:00
6:56 AM,54.0,46.9,77,30.01,10.0,SE,4.6,-,N/A,,Clear,130,2013-05-30 13:56:00
7:56 AM,57.0,46.9,69,30.01,10.0,NE,4.6,-,N/A,,Clear,50,2013-05-30 14:56:00
8:56 AM,59.0,46.9,64,30.02,10.0,Variable,3.5,-,N/A,,Clear,0,2013-05-30 15:56:00
9:56 AM,61.0,46.0,58,30.02,10.0,Calm,Calm,-,N/A,,Clear,0,2013-05-30 16:56:00
10:56 AM,64.0,48.9,58,30.02,10.0,North,6.9,-,N/A,,Clear,350,2013-05-30 17:56:00
11:56 AM,66.9,46.9,49,30.02,10.0,Variable,6.9,-,N/A,,Clear,0,2013-05-30 18:56:00
12:56 PM,69.1,48.9,49,30.01,10.0,North,9.2,-,N/A,,Clear,350,2013-05-30 19:56:00
1:56 PM,71.1,50.0,47,30.00,10.0,North,15.0,-,N/A,,Clear,360,2013-05-30 20:56:00
2:56 PM,71.1,51.1,49,30.00,10.0,North,17.3,-,N/A,,Clear,360,2013-05-30 21:56:00
3:56 PM,70.0,51.1,51,29.98,10.0,North,18.4,-,N/A,,Clear,350,2013-05-30 22:56:00
4:56 PM,72.0,44.1,37,29.98,10.0,North,18.4,21.9,N/A,,Clear,350,2013-05-30 23:56:00
5:56 PM,72.0,41.0,33,29.98,10.0,NNW,11.5,18.4,N/A,,Clear,330,2013-05-31 00:56:00
6:56 PM,70.0,39.0,32,29.98,10.0,NW,12.7,19.6,N/A,,Clear,320,2013-05-31 01:56:00
7:56 PM,66.0,37.0,34,29.99,10.0,NNW,8.1,-,N/A,,Clear,330,2013-05-31 02:56:00
8:56 PM,62.1,43.0,50,29.99,10.0,NNE,6.9,-,N/A,,Clear,20,2013-05-31 03:56:00
9:56 PM,60.1,46.9,62,30.01,10.0,North,4.6,-,N/A,,Clear,10,2013-05-31 04:56:00
10:56 PM,57.9,46.0,65,30.02,10.0,NNE,3.5,-,N/A,,Clear,20,2013-05-31 05:56:00
11:56 PM,57.0,46.9,69,30.02,10.0,NNE,3.5,-,N/A,,Clear,30,2013-05-31 06:56:00